Regional Weather Roundup
Issued by NWS

Home | Current Version | Previous Version | Text Only | Print | Product List | Glossary Off
Versions: 1 2 3 4 5 6 7 8 9 10 11 12 13 14 15 16 17 18 19 20 21 22 23 24 25 26 27 28 29 30 31 32 33 34 35 36 37 38 39 40 41 42 43 44 45 46 47 48 49 50

000
ASUS43 KMKX 011311
RWRWI

WISCONSIN REGIONAL WEATHER ROUNDUP
NATIONAL WEATHER SERVICE MILWAUKEE/SULLIVAN WI
800 AM CDT SAT AUG 01 2015

NOTE: "FAIR" INDICATES FEW OR NO CLOUDS BELOW 12,000 FEET WITH NO
SIGNIFICANT WEATHER AND/OR OBSTRUCTIONS TO VISIBILITY.

WIZ001-002-006>008-014>016-023>028-011400-
NORTHWEST WISCONSIN

CITY           SKY/WX    TMP DP  RH WIND       PRES   REMARKS
SUPERIOR ARPT  SUNNY     60  54  79 SW6       29.94S
ASHLAND        SUNNY     63  55  75 SW6       29.93S
HAYWARD        SUNNY     60  53  77 CALM      29.97S
SIREN          SUNNY     63  57  81 CALM      29.97R
CUMBERLAND     SUNNY     61  55  82 CALM      29.98R
RICE LAKE      SUNNY     61  55  82 CALM      29.99S
CHETEK         SUNNY     62  57  83 CALM      29.97S
LADYSMITH      SUNNY     64  55  73 NW3       29.98F
EAU CLAIRE     CLOUDY    65  58  78 CALM      29.96S
MENOMONIE      PTSUNNY   65  60  85 CALM      29.98R
NEW RICHMOND   PTSUNNY   65  61  88 CALM      29.98R
OSCEOLA        SUNNY     64  64 100 CALM      30.00R
$$

WIZ003>005-009-010-017-018-011400-
NORTH CENTRAL WISCONSIN

CITY           SKY/WX    TMP DP  RH WIND       PRES   REMARKS
MANITOWISH WTR SUNNY     60  55  84 NW6       29.94S
ARBOR VITAE    SUNNY     62  55  77 NW5       29.94S
WOODRUFF       SUNNY     62  55  77 NW5       29.94S
RHINELANDER    SUNNY     60  51  72 W10       29.95S
EAGLE RIVER    SUNNY     60  53  75 W5        29.93S
LAND O LAKES   SUNNY     62  53  71 W6        29.94S
PHILLIPS       SUNNY     59  52  77 CALM      29.96S
TOMAHAWK       SUNNY     58  53  82 W5        29.96S
MEDFORD        SUNNY     61  53  75 NW3       29.97S
MERRILL        NOT AVBL
$$

WIZ029-030-035-036-043>047-011400-
CENTRAL WISCONSIN

CITY           SKY/WX    TMP DP  RH WIND       PRES   REMARKS
WAUSAU         SUNNY     65  52  62 NW7       29.94S
MOSINEE        MOSUNNY   63  54  72 NW7       29.97R
MARSHFIELD     CLOUDY    64  53  67 NW6       29.98R
STEVENS POINT  MOSUNNY   64  51  64 W5        29.97R
WAUPACA        PTSUNNY   68  53  59 W6        29.96S
WAUTOMA        CLOUDY    67  56  67 NW6       29.97S
WISC RAPIDS    PTSUNNY   64  53  67 NW5       29.98S
CAMP DOUGLAS   MOSUNNY   68  67  96 CALM      29.97S
$$

WIZ011>013-019>022-031-037>040-048>050-011400-
NORTHEAST WISCONSIN

CITY           SKY/WX    TMP DP  RH WIND       PRES   REMARKS
ANTIGO         SUNNY     60  53  79 NW9       29.95S
SHAWANO        SUNNY     65  54  69 W7        29.94R
OCONTO         SUNNY     64  54  69 W8        29.90S
STURGEON BAY   SUNNY     64  54  68 W6        29.92S
GREEN BAY      SUNNY     66  55  67 W10       29.93S
MANITOWOC      SUNNY     68  53  58 MISG      29.93R
APPLETON       MOSUNNY   64  52  63 W8        29.95S
CLINTONVILLE   SUNNY     64  52  63 NW7       29.93S
OSHKOSH        MOSUNNY   66  54  65 W7        29.95R
$$

WIZ032>034-041-042-053>061-011400-
SOUTHWEST WISCONSIN

CITY           SKY/WX    TMP DP  RH WIND       PRES   REMARKS
LA CROSSE      PTSUNNY   69  60  73 SE5       29.97S
SPARTA         MOSUNNY   64  55  72 CALM      29.98S
VIROQUA        PTSUNNY   65  60  86 SW5       30.00S
BOSCOBEL       MOSUNNY   64  59  83 SW3       29.99F
PRAIRIE DU CHI MOSUNNY   65  60  84 CALM      29.99S
PLATTEVILLE    MOSUNNY   63  61  92 N3        30.02R
$$

WIZ056-057-062-063-064-067-068-011400-
SOUTH CENTRAL WISCONSIN

CITY           SKY/WX    TMP DP  RH WIND       PRES   REMARKS
REEDSBURG      CLOUDY    63  58  83 CALM      29.98S
BARABOO/DELLS  PTSUNNY   68  55  62 W7        29.98F
LONE ROCK      PTSUNNY   62  58  86 CALM      30.00S
MINERAL POINT  PTSUNNY   64  59  82 W3        30.01S
MADISON        PTSUNNY   69  57  65 NW7       29.98S
MIDDLETON      MOSUNNY   70  58  65 W8        30.00R
WATERTOWN      MOSUNNY   65  61  86 W3        29.98S
MONROE         PTSUNNY   66  57  72 W7        30.00S
JANESVILLE       N/A     66  57  72 W8        29.99S
$$

WIZ051-052-058>065-066-070>072-011400-
SOUTHEAST WISCONSIN

CITY           SKY/WX    TMP DP  RH WIND       PRES   REMARKS
MILWAUKEE      MOSUNNY   71  53  52 W10       29.96S
WAUKESHA       SUNNY     64  54  68 W9G17     29.99R
MILWAUKEE/TIMM SUNNY     68  54  60 W7        29.98R
RACINE         SUNNY     69  54  58 W8        29.98S
BURLINGTON     SUNNY     67  55  64 W7        29.98R
KENOSHA        SUNNY     69  58  67 W6        29.98R
FOND DU LAC    MOSUNNY   67  56  67 W8        29.96R
SHEBOYGAN      SUNNY     68  56  65 W8        29.94S
WEST BEND      MOSUNNY   68  52  56 W8        29.97R
JUNEAU         PTSUNNY   62  56  82 W8        29.99R
$$

LSZ147-162-011400-
LAKE SUPERIOR

STATION/POSITION TIME  TEMP    WIND        PRES    WAVE
                       AIR SEA DIR/SP/G            HT/PER
                 (UTC) (F)     (DEG/KT/KT) (MB)    (FT/S)
W MID LAKE BUOY  1250   57 54  250/ 12/ 14 1011.7R   1/ 3
DEVILS ISLAND    1300   59     250/ 14/ 16 1012.6S
PORT WING        1200   59     160/  3/  5 1013.5
SAXON HARBOR     1240   63                 1012.9S
$$

LMZ867-665-643>646-011400-
LAKE MICHIGAN

STATION/POSITION TIME  TEMP    WIND        PRES    WAVE
                       AIR SEA DIR/SP/G            HT/PER
                 (UTC) (F)     (DEG/KT/KT) (MB)    (FT/S)
CHAMBERS ISLAND  1200   64     240/  6/ 10 1011.9R
S GREEN BAY BUOY 1300   62 66  280/ 10/ 12 1014.1
N MID LAKE BUOY  1250   65 68  270/ 14/ 16 1010.9R   2/ 3
NORTHPORT PIER   1200   67     300/  9/ 14 1011.9R
SISTER BAY       1214   69     330/ 15/ 16   N/A
ALGOMA LAKESHORE 1227          300/  3/  6   N/A
KEWAUNEE LAKESHO 1200   63     290/  4/  6 1012.0R
SHEBOYGAN LAKESH 1300   69     270/ 10/ 11 1013.7R
PORT WASHINGTON  1200   69     280/  6/  9 1014.6
ATWATER BUOY     1300   67 63  270/ 12/ 16 1015.7R
MILWAUKEE LAKESH 1200   68     280/  8/ 11   N/A
KENOSHA   LAKESH 1300   70     270/  9/ 11 1014.6S
$$

TC  - TEMPERATURE IN CELSIUS
VSB - VISIBILITY IN STATUTE MILES
WCI - WIND CHILL INDEX
HX  - HEAT INDEX




USA.gov is the U.S. government's official web portal to all federal, state and local government web resources and services.